TimeMDT,TemperatureF,Dew PointF,Humidity,Sea Level PressureIn,VisibilityMPH,Wind Direction,Wind SpeedMPH,Gust SpeedMPH,PrecipitationIn,Events,Conditions,WindDirDegrees,DateUTC
12:55 AM,26.1,15.1,63,29.83,10.0,NNW,6.9,-,N/A,,Clear,340,2012-10-09 06:55:00
1:55 AM,26.1,14.0,60,29.83,10.0,North,4.6,-,N/A,,Clear,360,2012-10-09 07:55:00
2:55 AM,30.0,12.0,47,29.81,10.0,North,4.6,-,N/A,,Clear,360,2012-10-09 08:55:00
3:55 AM,32.0,12.0,44,29.80,10.0,WNW,6.9,-,N/A,,Clear,300,2012-10-09 09:55:00
4:55 AM,39.9,12.0,32,29.81,10.0,North,6.9,-,N/A,,Clear,350,2012-10-09 10:55:00
5:55 AM,35.1,18.0,50,29.87,10.0,West,6.9,-,N/A,,Clear,280,2012-10-09 11:55:00
6:55 AM,34.0,25.0,70,29.96,10.0,NNW,8.1,-,N/A,,Clear,340,2012-10-09 12:55:00
7:46 AM,32.0,23.0,69,30.03,10.0,WNW,6.9,-,N/A,,Mostly Cloudy,300,2012-10-09 13:46:00
7:55 AM,33.1,25.0,72,30.01,10.0,NNW,6.9,-,N/A,,Overcast,330,2012-10-09 13:55:00
8:17 AM,35.6,30.2,81,30.05,10.0,North,8.1,-,N/A,,Overcast,350,2012-10-09 14:17:00
8:55 AM,37.0,33.1,86,30.04,10.0,North,8.1,-,N/A,,Overcast,360,2012-10-09 14:55:00
9:41 AM,42.8,35.6,76,30.07,10.0,NNE,13.8,-,N/A,,Overcast,30,2012-10-09 15:41:00
9:55 AM,42.1,35.1,76,30.07,10.0,North,16.1,-,N/A,,Overcast,10,2012-10-09 15:55:00
10:55 AM,41.0,35.1,79,30.09,10.0,North,11.5,-,N/A,,Overcast,360,2012-10-09 16:55:00
11:55 AM,41.0,35.1,79,30.11,10.0,North,11.5,-,N/A,,Overcast,10,2012-10-09 17:55:00
12:55 PM,39.9,35.1,83,30.12,10.0,NNE,9.2,-,N/A,,Overcast,30,2012-10-09 18:55:00
1:22 PM,39.2,35.6,87,30.09,10.0,North,13.8,-,N/A,,Overcast,10,2012-10-09 19:22:00
1:55 PM,39.9,35.1,83,30.14,10.0,NNE,8.1,-,N/A,,Overcast,20,2012-10-09 19:55:00
2:55 PM,39.9,35.1,83,30.13,10.0,NE,8.1,-,N/A,,Overcast,40,2012-10-09 20:55:00
3:12 PM,42.8,35.6,76,30.12,10.0,NE,10.4,-,N/A,,Overcast,40,2012-10-09 21:12:00
3:30 PM,42.8,35.6,76,30.12,10.0,NNE,12.7,-,N/A,,Overcast,20,2012-10-09 21:30:00
3:55 PM,43.0,34.0,71,30.12,10.0,NNE,10.4,-,N/A,,Overcast,30,2012-10-09 21:55:00
4:55 PM,42.1,34.0,73,30.12,10.0,NNE,6.9,-,N/A,,Overcast,20,2012-10-09 22:55:00
5:55 PM,41.0,34.0,76,30.16,10.0,NNE,5.8,-,N/A,,Overcast,30,2012-10-09 23:55:00
6:55 PM,41.0,34.0,76,30.19,10.0,Calm,Calm,-,N/A,,Overcast,0,2012-10-10 00:55:00
7:55 PM,41.0,34.0,76,30.22,10.0,Calm,Calm,-,N/A,,Overcast,0,2012-10-10 01:55:00
8:55 PM,39.9,33.1,77,30.22,10.0,Calm,Calm,-,N/A,,Overcast,0,2012-10-10 02:55:00
9:27 PM,35.6,30.2,81,30.24,10.0,Calm,Calm,-,N/A,,Scattered Clouds,0,2012-10-10 03:27:00
9:55 PM,33.1,28.9,85,30.24,10.0,Calm,Calm,-,N/A,,Clear,0,2012-10-10 03:55:00
10:55 PM,28.0,27.0,96,30.26,10.0,Calm,Calm,-,N/A,,Clear,0,2012-10-10 04:55:00
11:55 PM,33.1,30.0,89,30.23,10.0,Calm,Calm,-,N/A,,Overcast,0,2012-10-10 05:55:00